QPF
0.01 0.00 0.00 0.00 0.00 0.00 0.00 0.00 0.00 0.00 0.00 0.00 0.00 0.00 0.00 0.00 0.00 0.00 0.00 0.01 0.04 0.08 0.10 0.14 0.08 0.06 0.01 0.00 0.00 0.00 0.00 0.00 0.00 0.00 0.00 0.00 0.00 0.00 0.00 0.00 0.00 0.00 0.00
0.00 0.00 0.00 0.00 0.00 0.00 0.00 0.00 0.00 0.00 0.00 0.00 0.00 0.00 0.00 0.00 0.00 0.00 0.00 0.00 0.00 0.01 0.02 0.07 0.06 0.12 0.09 0.06 0.01 0.00 0.00 0.00 0.00 0.00 0.00 0.00 0.00 0.00 0.00 0.00 0.00 0.00 0.00
0.00 0.00 0.00 0.00 0.00 0.00 0.00 0.00 0.00 0.00 0.00 0.00 0.00 0.00 0.00 0.00 0.00 0.00 0.00 0.00 0.00 0.00 0.00 0.02 0.02 0.06 0.05 0.09 0.09 0.04 0.00 0.00 0.00 0.00 0.00 0.00 0.00 0.00 0.00 0.00 0.00 0.00 0.00
0.00 0.00 0.00 0.00 0.00 0.00 0.00 0.00 0.00 0.00 0.00 0.00 0.00 0.00 0.00 0.00 0.00 0.00 0.00 0.00 0.00 0.00 0.00 0.00 0.00 0.01 0.03 0.04 0.07 0.07 0.06 0.03 0.02 0.01 0.00 0.00 0.00 0.00 0.00 0.00 0.00 0.00 0.00
0.00 0.00 0.00 0.00 0.00 0.00 0.00 0.00 0.00 0.00 0.00 0.00 0.00 0.00 0.00 0.00 0.00 0.00 0.00 0.00 0.00 0.00 0.00 0.00 0.00 0.00 0.01 0.03 0.05 0.05 0.09 0.07 0.04 0.02 0.00 0.00 0.00 0.00 0.00 0.00 0.00 0.00 0.00
0.00 0.00 0.00 0.00 0.00 0.00 0.00 0.00 0.00 0.00 0.00 0.00 0.00 0.00 0.00 0.00 0.00 0.00 0.00 0.00 0.00 0.00 0.00 0.00 0.00 0.00 0.00 0.00 0.00 0.01 0.03 0.05 0.05 0.05 0.02 0.01 0.00 0.00 0.00 0.00 0.00 0.00 0.00
0.00 0.00 0.00 0.00 0.00 0.00 0.00 0.00 0.00 0.00 0.00 0.00 0.00 0.00 0.00 0.00 0.00 0.00 0.00 0.00 0.00 0.00 0.00 0.00 0.00 0.00 0.00 0.00 0.00 0.00 0.00 0.00 0.01 0.05 0.06 0.03 0.02 0.01 0.02 0.01 0.00 0.01 0.00
0.00 0.00 0.00 0.00 0.00 0.00 0.00 0.00 0.00 0.00 0.00 0.00 0.00 0.00 0.00 0.00 0.00 0.00 0.00 0.00 0.00 0.00 0.00 0.00 0.00 0.00 0.00 0.00 0.00 0.01 0.00 0.00 0.00 0.01 0.01 0.00 0.01 0.02 0.04 0.04 0.04 0.04 0.03
0.00 0.00 0.00 0.00 0.00 0.00 0.00 0.00 0.00 0.00 0.00 0.00 0.00 0.00 0.01 0.00 0.00 0.00 0.00 0.00 0.00 0.00 0.00 0.00 0.00 0.00 0.00 0.00 0.00 0.00 0.00 0.00 0.00 0.00 0.00 0.00 0.00 0.00 0.00 0.01 0.02 0.05 0.01
0.00 0.00 0.00 0.00 0.00 0.00 0.00 0.01 0.00 0.00 0.00 0.00 0.00 0.00 0.00 0.00 0.00 0.00 0.00 0.00 0.00 0.00 0.00 0.00 0.00 0.00 0.00 0.00 0.00 0.00 0.00 0.00 0.01 0.01 0.01 0.00 0.00 0.00 0.00 0.01 0.02 0.05 0.03
0.00 0.00 0.00 0.00 0.00 0.00 0.00 0.01 0.00 0.01 0.00 0.00 0.00 0.00 0.00 0.00 0.00 0.00 0.00 0.00 0.00 0.00 0.00 0.00 0.00 0.00 0.00 0.00 0.00 0.00 0.00 0.00 0.01 0.01 0.01 0.00 0.01 0.01 0.02 0.02 0.01 0.03 0.04
0.00 0.00 0.00 0.00 0.00 0.00 0.01 0.00 0.01 0.01 0.00 0.00 0.00 0.00 0.00 0.00 0.00 0.00 0.00 0.00 0.00 0.00 0.00 0.00 0.00 0.00 0.00 0.00 0.00 0.00 0.00 0.00 0.01 0.02 0.02 0.01 0.01 0.02 0.03 0.04 0.05 0.05 0.06
0.00 0.00 0.00 0.00 0.00 0.00 0.01 0.01 0.01 0.01 0.01 0.00 0.00 0.00 0.00 0.00 0.00 0.00 0.00 0.00 0.00 0.00 0.00 0.00 0.00 0.00 0.00 0.00 0.00 0.00 0.00 0.00 0.01 0.02 0.02 0.01 0.01 0.02 0.03 0.04 0.04 0.05 0.06
0.00 0.00 0.00 0.00 0.00 0.00 0.01 0.01 0.00 0.01 0.00 0.00 0.00 0.00 0.00 0.00 0.00 0.00 0.00 0.00 0.00 0.00 0.00 0.00 0.00 0.00 0.00 0.00 0.00 0.00 0.00 0.00 0.01 0.01 0.02 0.01 0.01 0.02 0.03 0.02 0.04 0.05 0.08
0.00 0.00 0.00 0.00 0.00 0.00 0.01 0.00 0.00 0.01 0.00 0.00 0.00 0.00 0.00 0.00 0.00 0.00 0.00 0.00 0.00 0.00 0.00 0.00 0.00 0.00 0.00 0.00 0.00 0.00 0.00 0.00 0.01 0.01 0.02 0.01 0.01 0.01 0.01 0.03 0.05 0.06 0.08
0.00 0.00 0.00 0.00 0.00 0.00 0.02 0.00 0.00 0.00 0.00 0.00 0.00 0.00 0.00 0.00 0.00 0.00 0.00 0.00 0.00 0.00 0.00 0.00 0.00 0.00 0.01 0.01 0.01 0.01 0.01 0.00 0.00 0.01 0.01 0.02 0.02 0.02 0.04 0.06 0.06 0.07 0.06
0.01 0.00 0.00 0.00 0.00 0.00 0.01 0.00 0.01 0.00 0.00 0.00 0.00 0.00 0.00 0.00 0.00 0.00 0.00 0.00 0.00 0.00 0.00 0.00 0.00 0.00 0.01 0.02 0.03 0.02 0.02 0.01 0.01 0.02 0.02 0.02 0.03 0.02 0.02 0.01 0.01 0.01 0.00
0.00 0.00 0.00 0.00 0.00 0.00 0.00 0.00 0.01 0.01 0.01 0.00 0.00 0.00 0.00 0.00 0.01 0.02 0.03 0.01 0.00 0.00 0.00 0.00 0.00 0.00 0.01 0.02 0.03 0.02 0.02 0.03 0.03 0.04 0.05 0.04 0.03 0.02 0.01 0.01 0.01 0.00 0.00
0.00 0.00 0.00 0.00 0.00 0.00 0.00 0.01 0.02 0.03 0.02 0.03 0.01 0.00 0.00 0.01 0.03 0.04 0.04 0.02 0.02 0.02 0.03 0.04 0.05 0.04 0.06 0.06 0.07 0.08 0.07 0.10 0.07 0.05 0.04 0.04 0.02 0.01 0.01 0.00 0.00 0.00 0.00
0.00 0.00 0.00 0.00 0.00 0.00 0.00 0.00 0.01 0.02 0.02 0.03 0.04 0.02 0.00 0.01 0.01 0.02 0.02 0.06 0.08 0.08 0.06 0.11 0.12 0.14 0.17 0.17 0.16 0.16 0.13 0.11 0.07 0.06 0.04 0.03 0.01 0.00 0.00 0.00 0.00 0.00 0.00
0.00 0.00 0.00 0.00 0.00 0.00 0.00 0.00 0.00 0.01 0.02 0.01 0.03 0.02 0.00 0.00 0.00 0.00 0.00 0.01 0.03 0.06 0.09 0.11 0.11 0.07 0.07 0.07 0.08 0.08 0.05 0.05 0.04 0.02 0.01 0.00 0.00 0.00 0.00 0.00 0.00 0.00 0.00
0.00 0.00 0.00 0.00 0.00 0.00 0.00 0.00 0.00 0.00 0.00 0.00 0.00 0.01 0.00 0.01 0.00 0.00 0.00 0.00 0.00 0.00 0.00 0.00 0.00 0.01 0.00 0.00 0.00 0.00 0.00 0.01 0.01 0.01 0.00 0.00 0.00 0.00 0.00 0.00 0.00 0.00 0.00
0.00 0.00 0.00 0.00 0.00 0.00 0.00 0.00 0.00 0.00 0.00 0.00 0.00 0.00 0.01 0.00 0.00 0.00 0.00 0.00 0.00 0.00 0.00 0.00 0.00 0.00 0.00 0.00 0.00 0.00 0.00 0.00 0.00 0.00 0.00 0.00 0.00 0.00 0.00 0.00 0.00 0.01 0.02
0.00 0.00 0.00 0.00 0.00 0.00 0.00 0.00 0.00 0.00 0.00 0.00 0.00 0.00 0.00 0.00 0.00 0.00 0.00 0.00 0.00 0.00 0.00 0.00 0.00 0.00 0.00 0.00 0.00 0.00 0.00 0.00 0.00 0.00 0.00 0.00 0.00 0.00 0.00 0.00 0.00 0.00 0.00
0.00 0.00 0.00 0.00 0.00 0.00 0.00 0.00 0.00 0.00 0.00 0.00 0.00 0.00 0.00 0.00 0.00 0.00 0.00 0.00 0.00 0.00 0.00 0.00 0.00 0.00 0.00 0.00 0.00 0.00 0.00 0.00 0.00 0.00 0.00 0.00 0.00 0.00 0.00 0.00 0.00 0.00 0.00
0.00 0.00 0.00 0.00 0.00 0.00 0.00 0.00 0.00 0.00 0.00 0.00 0.00 0.00 0.00 0.00 0.00 0.00 0.00 0.00 0.00 0.00 0.00 0.00 0.00 0.00 0.00 0.00 0.00 0.00 0.00 0.00 0.00 0.00 0.00 0.00 0.00 0.00 0.00 0.00 0.00 0.00 0.00
MSLP
1019.16 1019.05 1019.44 1019.47 1019.11 1019.20 1019.01 1018.50 1018.40 1017.92 1017.89 1018.12 1017.91 1017.35 1016.93 1016.48 1016.09 1015.64 1015.24 1015.03 1014.82 1014.61 1014.20 1013.99 1013.75 1013.53 1013.13 1012.52 1011.92 1011.22 1010.75 1010.88 1010.06 1009.45 1009.39 1009.48 1009.54 1009.63 1009.74 1009.80 1009.88 1009.92 1009.85
1020.21 1019.78 1020.30 1019.77 1019.44 1019.34 1019.01 1018.81 1018.65 1018.60 1018.32 1018.19 1017.63 1017.09 1016.70 1016.26 1015.90 1015.50 1014.98 1014.66 1014.17 1013.88 1013.59 1013.49 1012.97 1012.94 1012.78 1012.64 1012.28 1011.55 1010.92 1010.40 1010.03 1009.30 1009.09 1009.05 1009.20 1009.20 1009.15 1009.09 1009.12 1008.78 1008.66
1019.85 1020.43 1020.36 1020.56 1020.45 1020.13 1019.59 1019.49 1019.23 1019.15 1018.62 1018.06 1017.51 1017.03 1016.49 1015.89 1015.60 1015.05 1014.60 1014.27 1013.90 1013.58 1013.01 1012.44 1011.93 1011.93 1011.83 1011.94 1011.88 1011.48 1010.95 1010.07 1009.75 1009.31 1008.90 1008.96 1008.58 1008.32 1008.03 1008.08 1008.23 1008.21 1008.11
1020.19 1019.96 1020.20 1020.65 1020.46 1020.04 1019.68 1019.63 1019.46 1018.98 1018.66 1018.13 1017.59 1016.96 1016.44 1015.86 1015.23 1014.63 1013.98 1013.58 1013.24 1012.85 1012.55 1011.91 1011.46 1011.04 1010.81 1010.95 1010.84 1010.77 1010.53 1010.17 1009.51 1009.12 1008.05 1007.67 1007.57 1007.49 1007.61 1007.38 1007.06 1006.91 1006.74
1020.37 1019.95 1019.95 1020.55 1020.29 1020.11 1020.29 1019.84 1019.53 1019.07 1018.87 1018.33 1017.70 1017.04 1016.50 1015.80 1014.72 1013.70 1013.24 1012.57 1012.28 1011.82 1011.45 1011.29 1011.08 1010.76 1010.29 1010.30 1010.00 1009.72 1009.92 1009.85 1009.51 1008.98 1007.97 1007.22 1006.85 1006.77 1006.56 1006.36 1005.95 1005.87 1005.54
1019.64 1019.79 1020.22 1020.30 1020.19 1020.05 1019.74 1019.44 1019.19 1018.78 1018.27 1017.72 1017.04 1016.41 1015.83 1015.19 1014.38 1014.09 1013.80 1013.19 1012.48 1011.55 1011.00 1010.60 1010.32 1010.13 1009.85 1009.37 1009.19 1008.96 1009.02 1009.00 1008.87 1008.69 1007.94 1006.84 1006.48 1006.11 1006.06 1005.99 1005.73 1005.44 1005.27
1020.02 1020.06 1020.17 1020.14 1019.93 1019.76 1019.53 1019.26 1018.79 1018.19 1017.56 1016.99 1016.42 1015.96 1015.14 1014.38 1013.97 1013.76 1013.55 1012.97 1012.13 1011.29 1010.66 1010.10 1009.61 1009.02 1008.63 1008.36 1007.87 1007.62 1007.63 1007.56 1007.60 1007.73 1007.59 1006.91 1006.62 1006.44 1006.39 1006.31 1006.05 1005.95 1005.79
1019.71 1019.71 1019.62 1019.48 1019.36 1019.15 1018.88 1018.54 1018.19 1017.69 1017.11 1016.54 1015.99 1015.36 1014.49 1013.68 1013.33 1012.99 1012.80 1012.37 1011.53 1010.76 1010.20 1009.53 1008.89 1008.43 1008.18 1007.80 1007.42 1006.72 1006.01 1005.64 1005.82 1006.20 1006.45 1006.02 1006.37 1006.64 1006.72 1006.63 1006.67 1006.41 1006.38
1019.40 1019.38 1019.38 1019.28 1019.07 1018.79 1018.49 1018.21 1017.85 1017.34 1016.54 1015.67 1015.12 1014.58 1014.02 1013.00 1012.66 1012.16 1011.83 1011.15 1010.07 1009.15 1008.76 1008.35 1007.77 1007.19 1006.81 1006.91 1006.85 1006.16 1005.61 1005.00 1004.57 1004.36 1004.58 1004.98 1005.38 1005.70 1006.16 1006.24 1005.83 1005.68 1005.21
1018.94 1018.92 1018.87 1018.63 1018.29 1018.01 1018.05 1017.51 1017.27 1016.91 1016.00 1015.50 1014.66 1014.07 1013.13 1011.95 1011.47 1011.09 1010.87 1010.12 1008.77 1008.06 1007.51 1006.72 1006.21 1005.86 1005.69 1005.64 1005.58 1005.26 1004.57 1003.90 1003.93 1003.68 1004.12 1004.29 1004.59 1004.76 1005.02 1005.28 1005.18 1004.94 1004.42
1018.46 1018.26 1017.99 1017.75 1017.50 1017.14 1017.16 1016.89 1016.70 1016.34 1015.60 1015.33 1014.39 1013.37 1012.18 1010.98 1009.67 1009.49 1009.25 1008.83 1007.88 1006.91 1005.78 1004.97 1004.35 1004.16 1004.06 1004.13 1004.31 1004.16 1003.36 1003.33 1002.85 1003.05 1003.09 1003.19 1003.50 1003.32 1003.47 1003.72 1003.90 1004.01 1003.58
1018.03 1017.67 1017.33 1017.09 1016.75 1016.20 1016.11 1015.92 1015.93 1015.32 1014.72 1014.56 1013.65 1012.38 1011.39 1009.86 1008.45 1007.69 1007.32 1006.99 1006.67 1006.03 1004.85 1004.32 1003.87 1003.34 1003.11 1002.96 1002.94 1002.54 1002.51 1002.68 1002.24 1002.20 1002.51 1002.54 1002.69 1002.39 1002.17 1002.01 1002.31 1002.72 1002.74
1017.39 1016.94 1016.56 1016.22 1015.62 1015.26 1014.84 1014.91 1014.85 1014.63 1014.64 1014.32 1013.36 1012.09 1010.65 1009.07 1007.69 1006.36 1005.69 1005.39 1005.05 1004.65 1003.96 1003.33 1003.31 1003.22 1002.74 1002.32 1001.97 1002.09 1001.95 1001.43 1001.16 1001.49 1001.67 1001.84 1001.81 1001.68 1001.45 1001.32 1001.80 1001.97 1002.07
1016.65 1016.16 1015.74 1015.18 1014.46 1014.01 1014.18 1013.63 1014.02 1013.75 1014.22 1013.91 1013.28 1012.08 1010.47 1008.70 1007.26 1006.03 1004.46 1003.72 1003.49 1003.11 1002.52 1002.05 1001.95 1002.01 1001.72 1000.97 1000.95 1000.43 1000.50 999.83 1000.06 1000.50 1000.92 1000.87 1000.93 1001.10 1000.78 1000.60 1000.86 1001.28 1001.52
1016.10 1015.67 1014.86 1013.83 1013.44 1013.15 1012.97 1013.18 1013.25 1013.26 1013.36 1013.38 1012.86 1011.97 1010.46 1008.62 1007.14 1005.85 1004.50 1003.36 1001.96 1001.39 1001.30 1001.07 1001.12 1001.06 1000.29 999.45 999.26 998.99 998.61 998.68 999.42 999.72 999.91 1000.02 1000.04 1000.17 1000.20 1000.17 1000.60 1000.91 1001.12
1015.67 1014.78 1014.15 1013.65 1012.76 1012.24 1012.16 1012.32 1012.31 1012.25 1012.07 1012.05 1011.95 1011.48 1010.25 1008.57 1006.08 1003.96 1002.18 1001.00 1000.50 1000.31 1000.59 1000.65 1000.60 1000.52 999.99 999.18 998.41 998.06 997.94 998.12 998.49 998.76 998.73 999.03 999.35 999.42 999.76 1000.12 1000.31 1000.48 1000.54
1015.35 1014.77 1013.70 1013.00 1012.26 1012.07 1011.84 1011.39 1011.29 1010.93 1010.93 1010.73 1010.86 1010.24 1009.29 1007.64 1004.99 1002.52 1000.40 999.01 999.03 999.83 999.62 999.42 999.53 999.69 999.45 998.74 997.67 997.17 997.11 997.15 997.48 997.71 998.17 998.59 999.12 999.29 999.70 999.64 999.51 1000.02 1000.31
1014.46 1013.70 1013.01 1012.05 1011.94 1011.56 1011.17 1010.94 1010.88 1010.19 1009.73 1009.22 1009.56 1009.52 1008.78 1007.31 1005.00 1002.78 1000.50 999.59 999.49 999.82 999.57 998.99 998.56 998.46 998.29 997.95 997.36 996.84 996.72 996.87 997.05 997.26 997.75 998.16 998.64 998.93 999.23 999.62 1000.01 1000.61 1000.89
1013.48 1012.64 1012.19 1011.63 1010.99 1010.69 1010.44 1009.78 1009.52 1009.18 1009.40 1008.86 1008.71 1008.59 1008.37 1007.16 1005.65 1003.53 1001.80 1000.80 1000.26 999.32 998.43 998.28 997.79 997.44 997.31 996.93 996.25 996.40 996.54 996.80 996.95 997.08 997.83 997.95 998.18 998.48 999.48 999.88 1000.54 1000.97 1000.91
1012.54 1012.13 1011.73 1010.87 1010.31 1009.71 1009.41 1009.10 1008.87 1008.58 1008.34 1007.92 1007.81 1008.01 1007.85 1007.18 1005.52 1004.53 1003.50 1002.49 1001.62 1000.68 999.90 998.94 997.98 997.01 996.74 996.86 997.14 997.41 997.35 997.29 997.73 997.74 998.02 998.73 998.85 998.99 999.21 1000.08 1000.35 1000.70 1001.03
1011.58 1011.07 1010.65 1010.05 1009.44 1008.97 1008.75 1008.25 1008.00 1007.75 1007.53 1007.14 1007.02 1007.64 1007.79 1007.54 1006.88 1006.09 1005.03 1004.16 1002.43 1001.96 1001.47 1000.82 1000.05 999.10 998.66 998.60 998.82 998.71 998.23 999.20 999.15 997.93 999.77 999.52 999.66 999.42 999.71 1000.01 1000.51 1000.20 1000.67
1011.13 1010.63 1009.93 1009.85 1009.16 1008.53 1008.00 1007.56 1007.25 1006.70 1006.52 1006.33 1006.49 1007.14 1007.21 1007.13 1006.90 1006.47 1005.68 1005.05 1004.51 1003.95 1003.69 1003.29 1002.79 1001.39 1001.41 1001.16 1000.82 1000.84 999.95 1001.15 1001.78 1001.02 1000.14 1001.02 1000.84 1000.50 1000.79 1001.20 1001.63 1001.20 1001.22
1010.27 1009.84 1009.36 1008.93 1008.44 1008.01 1007.40 1007.07 1006.33 1006.09 1005.80 1005.59 1005.63 1005.83 1006.39 1006.35 1006.54 1006.35 1006.07 1005.55 1005.26 1004.95 1004.47 1004.30 1003.90 1003.07 1003.02 1003.41 1003.23 1002.88 1003.02 1003.18 1001.81 1001.32 1001.31 1001.52 1000.58 1000.63 1000.96 1001.42 1001.39 1000.69 1000.55
1009.49 1009.04 1008.42 1008.17 1007.86 1007.54 1006.96 1006.57 1006.00 1005.92 1005.79 1005.43 1005.27 1005.18 1005.17 1005.52 1005.57 1005.70 1005.84 1005.44 1005.12 1004.63 1004.29 1004.22 1004.12 1004.38 1005.01 1004.86 1004.64 1004.18 1003.58 1002.77 1001.79 1001.38 1001.11 1001.12 1000.49 1000.37 1000.66 1000.73 1000.25 1000.28 1000.79
1008.68 1008.16 1007.58 1007.09 1006.87 1006.49 1006.41 1006.00 1005.93 1005.79 1005.62 1005.46 1005.31 1005.27 1004.96 1004.82 1004.53 1004.82 1005.20 1005.26 1005.14 1004.90 1004.60 1004.63 1004.75 1005.08 1005.47 1005.59 1005.35 1005.02 1004.51 1003.52 1002.82 1002.39 1001.90 1001.68 1001.65 1001.59 1001.49 1001.25 1001.13 1000.75 1000.64
1008.22 1007.35 1006.92 1006.71 1006.30 1006.07 1005.93 1006.05 1005.86 1005.77 1005.69 1005.51 1005.35 1005.34 1005.10 1004.85 1004.74 1004.39 1004.47 1004.44 1004.44 1004.43 1004.45 1004.63 1004.92 1005.29 1005.67 1005.90 1005.90 1005.54 1004.90 1004.44 1004.04 1003.77 1003.00 1002.63 1002.51 1002.61 1002.81 1002.11 1001.90 1001.48 1001.15
Thickness
5735 5732 5731 5732 5735 5733 5733 5741 5742 5746 5744 5744 5744 5751 5755 5759 5762 5766 5770 5771 5772 5773 5777 5779 5781 5784 5785 5791 5797 5803 5805 5804 5803 5818 5823 5825 5823 5823 5822 5820 5820 5820 5820
5717 5719 5716 5722 5725 5724 5725 5729 5732 5731 5733 5735 5742 5747 5750 5754 5755 5757 5761 5764 5767 5769 5772 5773 5778 5779 5780 5782 5783 5788 5795 5803 5802 5804 5816 5818 5817 5820 5820 5819 5818 5819 5820
5712 5706 5706 5703 5704 5707 5713 5713 5717 5717 5724 5729 5734 5738 5742 5746 5747 5751 5754 5755 5758 5761 5767 5772 5777 5777 5778 5777 5777 5779 5785 5796 5799 5800 5804 5810 5814 5817 5817 5819 5816 5816 5816
5699 5700 5698 5692 5695 5700 5704 5704 5705 5706 5711 5715 5720 5725 5730 5735 5739 5743 5746 5749 5751 5754 5758 5765 5771 5774 5776 5775 5775 5777 5780 5782 5789 5791 5802 5806 5809 5813 5810 5808 5809 5817 5817
5686 5688 5688 5683 5686 5688 5685 5688 5692 5692 5693 5698 5703 5708 5712 5718 5727 5734 5737 5742 5744 5748 5754 5757 5760 5764 5770 5771 5774 5777 5773 5772 5776 5779 5789 5797 5802 5802 5800 5808 5808 5813 5817
5683 5679 5674 5672 5673 5671 5672 5673 5675 5678 5683 5686 5690 5695 5700 5706 5713 5713 5713 5717 5725 5733 5738 5746 5752 5755 5758 5764 5766 5773 5772 5768 5770 5770 5777 5788 5793 5798 5802 5801 5801 5799 5792
5669 5667 5664 5663 5662 5661 5661 5661 5663 5667 5671 5673 5677 5677 5684 5692 5695 5695 5695 5697 5704 5716 5723 5731 5737 5747 5752 5757 5763 5766 5769 5771 5773 5771 5767 5778 5782 5788 5789 5789 5788 5787 5785
5656 5653 5652 5651 5648 5648 5646 5645 5646 5648 5650 5653 5656 5660 5668 5677 5677 5678 5678 5680 5689 5699 5707 5716 5724 5733 5739 5743 5746 5753 5764 5774 5775 5774 5769 5779 5777 5778 5775 5776 5776 5778 5779
5643 5641 5639 5636 5634 5632 5630 5629 5628 5630 5635 5638 5638 5641 5645 5658 5659 5661 5660 5665 5678 5691 5697 5703 5711 5721 5733 5732 5730 5736 5744 5759 5773 5774 5775 5774 5775 5774 5771 5768 5769 5766 5771
5633 5631 5628 5625 5623 5622 5615 5615 5614 5612 5617 5617 5621 5621 5626 5636 5639 5639 5639 5645 5661 5671 5681 5693 5703 5710 5717 5721 5721 5725 5733 5750 5753 5761 5761 5763 5765 5769 5767 5765 5766 5761 5765
5625 5623 5620 5618 5614 5611 5604 5601 5597 5592 5596 5593 5598 5603 5609 5615 5627 5622 5622 5626 5639 5652 5669 5682 5693 5700 5704 5710 5710 5711 5730 5736 5743 5746 5751 5756 5760 5765 5768 5767 5767 5763 5763
5613 5612 5610 5608 5603 5602 5594 5588 5582 5581 5582 5578 5584 5592 5595 5603 5612 5616 5614 5616 5619 5627 5646 5657 5667 5676 5684 5693 5699 5708 5715 5719 5728 5735 5736 5742 5747 5756 5762 5767 5767 5766 5767
5605 5604 5604 5601 5598 5593 5588 5580 5575 5571 5566 5565 5569 5576 5585 5594 5601 5607 5609 5610 5612 5618 5630 5639 5641 5647 5659 5675 5686 5690 5696 5708 5718 5722 5727 5732 5739 5747 5754 5756 5755 5758 5759
5599 5599 5598 5596 5594 5591 5582 5578 5568 5565 5554 5553 5554 5559 5569 5581 5588 5592 5602 5604 5605 5611 5621 5628 5633 5636 5642 5659 5669 5683 5689 5703 5710 5714 5718 5727 5732 5735 5739 5746 5744 5744 5743
5592 5592 5596 5600 5596 5591 5583 5573 5564 5557 5547 5541 5540 5544 5553 5566 5573 5576 5579 5585 5595 5599 5603 5613 5620 5624 5636 5650 5660 5673 5686 5693 5696 5705 5711 5716 5722 5726 5729 5734 5734 5733 5729
5586 5592 5595 5593 5595 5592 5584 5574 5567 5556 5548 5540 5533 5530 5536 5546 5562 5573 5579 5583 5584 5585 5589 5595 5602 5612 5623 5637 5650 5661 5672 5680 5689 5697 5707 5710 5712 5717 5718 5719 5721 5722 5722
5582 5585 5590 5590 5591 5585 5581 5575 5565 5563 5552 5543 5536 5533 5532 5541 5559 5572 5582 5589 5584 5577 5584 5590 5595 5602 5614 5628 5644 5655 5664 5675 5683 5691 5695 5698 5698 5703 5701 5708 5714 5713 5713
5584 5584 5588 5592 5587 5584 5580 5573 5565 5561 5556 5554 5545 5535 5532 5538 5552 5564 5575 5580 5579 5572 5577 5585 5591 5600 5611 5623 5635 5646 5657 5664 5673 5680 5684 5687 5688 5689 5694 5694 5695 5692 5692
5585 5590 5591 5590 5591 5586 5582 5579 5574 5568 5557 5553 5549 5544 5536 5534 5540 5554 5564 5571 5573 5580 5586 5589 5597 5605 5612 5624 5637 5644 5651 5655 5662 5669 5669 5675 5679 5683 5679 5680 5676 5674 5678
5590 5590 5589 5593 5593 5592 5587 5582 5576 5571 5564 5562 5555 5550 5545 5543 5547 5545 5551 5556 5559 5564 5572 5582 5596 5610 5616 5620 5620 5623 5628 5638 5641 5648 5655 5655 5661 5667 5669 5663 5664 5664 5664
5594 5596 5594 5596 5595 5592 5587 5585 5581 5578 5573 5570 5568 5556 5543 5544 5542 5539 5540 5548 5552 5557 5561 5568 5577 5589 5600 5605 5606 5609 5620 5615 5623 5641 5630 5638 5643 5648 5648 5650 5649 5655 5655
5594 5595 5597 5592 5594 5592 5592 5592 5586 5585 5581 5578 5574 5566 5553 5548 5543 5543 5543 5545 5544 5547 5549 5548 5549 5568 5570 5574 5579 5587 5596 5588 5589 5605 5619 5610 5610 5618 5623 5624 5618 5628 5633
5599 5598 5598 5598 5597 5595 5595 5593 5594 5590 5588 5585 5581 5576 5567 5560 5551 5545 5543 5547 5543 5545 5548 5548 5551 5559 5559 5556 5560 5566 5568 5567 5581 5591 5596 5592 5606 5608 5604 5602 5604 5615 5620
5602 5601 5602 5601 5599 5596 5596 5594 5595 5589 5587 5586 5583 5579 5576 5570 5564 5557 5552 5551 5553 5554 5555 5557 5554 5550 5543 5544 5549 5554 5560 5569 5578 5586 5590 5590 5599 5602 5602 5605 5611 5613 5612
5605 5605 5606 5604 5601 5601 5598 5597 5593 5590 5587 5583 5580 5576 5576 5573 5573 5567 5561 5557 5555 5554 5553 5551 5548 5543 5539 5537 5539 5541 5549 5559 5565 5569 5577 5578 5580 5583 5588 5592 5594 5599 5602
5605 5608 5608 5606 5604 5601 5597 5592 5589 5585 5581 5579 5577 5574 5572 5569 5567 5566 5563 5562 5561 5559 5557 5553 5547 5541 5537 5534 5533 5536 5540 5544 5546 5548 5555 5560 5563 5564 5563 5572 5575 5580 5585